User: anonymous   Login
Location: Unspecified
(0.0000°N, 0.0000°E)
Time: 16:05:12
(UTC+00:00)
Language:

Skynet 4B - Orbit

View from above orbital plane
View from above orbital plane
View from above satellite
View from above satellite

Ground track
Ground track

The orbit data is extracted from the following two-line orbital elements,

1 19687U 88109A   17115.93657998 -.00000133 +00000-0 +00000-0 0  9996
2 19687 015.4117 005.9552 0004742 251.3001 108.6166 00.99684184084949
Epoch (UTC): 25 April 2017 22:28:40
Eccentricity: 0.0004742
inclination: 15.4117°
perigee height: 35931 km
apogee height: 35972 km
right ascension of ascending node: 5.9552°
argument of perigee: 251.3001°
revolutions per day: 0.99684184
mean anomaly at epoch: 108.6166°
orbit number at epoch: 8494

The dashed part of the orbit path shows where the satellite is in the earth's shadow,  

DLR